RH
52 52 52 50 50 51 50 48 47 48 52 58 62 67 79 90 92 91 91 87 78 69 60 52 49 49 54 67 82 91 90 83 79 79 85 92 95 99 102 97 92 98 107 105 95 93 97 100 101 101 100 101 101 100 100 100 100 98 97 100 101 100 100 101 100 98 102 101 96 95 88 75 72 82
53 54 54 53 52 51 50 48 47 48 50 54 57 59 65 77 90 98 99 93 81 69 60 54 51 50 47 48 59 79 94 97 93 85 80 81 83 88 95 97 94 94 101 105 100 92 90 95 100 100 100 100 100 101 100 99 101 100 100 100 100 100 100 101 101 98 100 102 100 100 102 92 74 62
55 56 56 55 54 52 51 49 48 48 51 53 56 58 58 62 70 77 80 79 72 64 58 55 53 50 47 45 45 56 77 93 100 99 92 84 78 78 82 87 88 89 92 96 96 89 83 87 94 96 99 101 100 101 101 100 101 100 101 100 100 101 101 101 100 95 94 100 102 99 100 102 94 76
52 53 53 52 51 50 50 50 50 50 54 58 58 58 57 56 55 53 54 58 62 63 60 56 52 48 44 43 42 45 58 76 91 98 100 97 89 80 76 78 80 82 84 85 84 79 76 80 85 88 95 101 102 101 100 101 101 101 101 100 100 101 100 100 100 96 91 91 99 102 99 100 101 98
50 49 50 50 49 49 50 52 54 54 56 60 60 60 59 56 52 49 49 51 55 59 58 54 50 47 43 40 40 41 46 60 77 89 95 98 97 91 83 78 76 76 77 77 77 76 73 73 75 79 87 98 102 101 100 101 101 101 101 100 100 101 101 100 99 100 97 90 92 98 100 100 100 101
54 54 55 56 55 55 57 58 58 59 59 60 60 61 61 60 57 56 56 55 54 53 52 49 45 43 42 40 40 41 42 50 66 83 92 95 97 98 95 88 81 77 75 73 72 73 72 69 69 70 77 89 98 100 101 102 100 101 101 100 100 100 101 101 99 99 100 97 94 95 98 101 100 100
71 69 70 72 72 73 74 72 67 63 61 59 59 59 59 59 59 58 58 56 55 53 50 48 45 43 44 44 44 45 46 47 56 76 93 99 100 102 103 100 93 86 84 80 74 70 68 66 65 67 71 78 87 94 100 102 101 101 101 99 100 100 100 101 100 100 100 100 100 99 99 100 100 100
93 90 89 86 82 85 89 88 83 77 69 61 58 57 56 56 56 57 57 56 54 54 52 49 48 47 48 49 50 52 53 51 50 63 84 99 104 103 104 107 106 99 94 90 86 81 75 71 66 65 67 71 74 81 90 98 100 101 101 99 98 99 100 100 100 101 100 100 100 100 100 101 100 100
101 100 100 94 86 87 90 91 92 91 86 78 70 64 60 58 58 60 60 58 56 54 50 49 51 52 53 52 52 54 57 60 58 58 70 88 102 108 104 103 109 109 102 97 95 92 88 85 79 73 71 71 70 70 74 84 93 98 101 101 99 97 98 99 98 99 100 101 102 102 100 100 100 101
103 105 105 97 88 85 89 93 92 90 89 87 82 77 73 69 65 64 63 60 57 54 49 49 52 56 57 55 55 56 59 67 72 72 74 82 96 109 108 101 102 106 104 102 102 100 96 93 90 86 83 80 77 73 69 71 78 87 94 98 100 100 99 99 99 98 97 98 99 102 102 102 101 99
104 105 103 95 89 89 93 93 86 79 79 80 79 78 77 74 69 67 65 61 57 52 48 49 53 57 58 56 57 60 62 69 77 81 87 90 95 105 108 104 101 102 102 102 103 105 103 99 96 94 92 90 87 82 78 76 73 74 81 88 94 99 101 100 100 99 98 97 95 95 97 102 105 103
103 101 101 101 99 98 96 87 74 69 69 70 71 71 70 70 70 70 67 61 56 51 47 49 52 55 57 56 57 58 59 65 72 79 87 92 94 100 106 106 103 101 103 101 99 101 104 103 102 100 100 101 98 88 83 86 83 74 73 78 83 89 95 100 101 101 100 99 98 96 94 95 98 100
105 101 99 99 95 90 88 82 71 67 66 67 70 70 69 73 75 73 69 63 58 53 49 48 48 53 58 60 60 61 60 60 62 68 78 84 86 88 93 98 98 97 101 103 98 96 99 102 102 99 97 101 106 100 89 89 92 85 77 76 77 79 82 88 95 99 101 101 101 100 98 96 94 94
92 86 84 85 81 76 81 82 74 68 66 66 68 70 73 78 79 75 71 66 61 57 53 51 49 51 57 60 61 65 68 68 65 61 65 74 82 86 87 87 85 84 88 94 93 89 91 96 99 99 95 92 97 102 97 91 93 93 89 83 80 79 78 78 81 86 93 98 100 100 101 101 99 98
78 74 75 80 78 74 80 84 76 68 65 63 64 66 69 73 74 73 71 68 65 62 59 58 56 56 59 60 58 59 63 67 72 72 68 69 78 87 87 83 79 74 72 77 81 80 80 85 89 93 92 88 86 90 95 93 89 90 93 93 89 85 82 80 78 77 78 83 89 95 99 101 101 101
76 77 77 80 79 75 74 72 64 59 58 59 61 63 64 65 65 64 65 64 64 64 63 61 60 60 63 64 62 62 61 59 65 74 75 72 74 78 78 75 72 67 63 65 71 72 69 69 73 78 81 82 80 79 84 89 88 84 84 89 93 93 89 85 83 80 78 75 75 79 85 92 98 100
82 86 84 83 84 81 75 68 60 56 56 59 63 64 65 66 64 61 59 57 56 59 61 62 62 62 63 64 64 66 67 64 63 66 68 67 65 65 67 67 62 55 50 52 61 70 70 63 59 61 66 70 73 74 74 77 81 81 79 79 83 88 91 89 86 83 82 79 75 72 70 73 80 87
94 97 97 95 94 90 82 71 64 62 63 66 70 73 72 70 68 65 60 56 52 49 51 56 59 60 61 63 63 65 68 69 68 67 66 64 61 57 56 58 58 53 45 41 44 56 67 66 58 54 54 55 58 63 66 68 70 73 75 76 76 79 84 88 87 83 80 79 77 74 70 66 65 68
101 101 101 101 102 100 93 82 74 73 75 78 81 86 86 83 80 79 76 73 69 63 59 57 56 56 57 58 60 63 66 68 68 68 68 67 64 59 55 52 51 48 46 42 38 39 48 55 54 52 52 53 52 52 54 57 60 62 64 67 70 73 77 82 84 81 78 76 74 71 69 67 64 62
101 101 101 101 101 102 101 96 88 83 84 88 91 94 95 92 90 89 88 87 87 87 85 81 76 72 67 63 61 61 61 63 64 66 67 67 64 62 60 57 53 48 45 42 39 36 37 39 41 41 44 48 51 50 47 45 47 50 52 55 58 61 65 70 76 79 79 75 72 68 65 63 63 62
101 101 101 101 101 100 101 101 100 97 95 97 99 99 97 94 94 97 98 97 98 100 101 99 96 90 83 77 73 71 69 68 66 66 66 65 62 60 60 60 59 55 51 45 41 39 37 35 33 32 31 32 35 37 36 35 34 34 37 40 44 48 51 54 60 68 75 76 73 70 65 60 57 57
101 101 101 101 101 101 101 99 97 99 102 103 104 106 104 100 100 102 99 97 100 101 100 98 95 92 87 83 79 75 72 70 67 65 63 61 59 58 59 60 61 60 56 51 45 41 38 35 32 30 28 27 27 27 27 28 28 28 27 28 30 33 37 40 43 49 56 62 66 66 64 60 55 52
102 101 102 101 99 97 96 91 88 93 100 104 107 111 108 101 100 99 95 92 94 96 94 93 91 88 84 79 75 72 69 65 58 54 53 53 53 53 53 53 52 49 45 40 37 36 34 33 32 30 29 29 29 29 29 29 30 30 30 28 27 26 26 27 30 33 37 42 47 51 53 54 53 51
102 101 102 100 93 86 80 78 78 85 94 100 105 107 104 99 100 103 101 96 92 92 92 90 86 82 76 71 68 64 60 55 48 44 42 42 41 41 41 40 38 37 35 34 33 33 33 33 33 33 33 32 32 32 31 31 31 31 31 30 30 29 27 24 23 23 25 27 30 33 37 41 43 45
102 102 103 96 84 73 67 68 73 79 88 96 100 98 97 99 101 102 103 101 95 90 87 82 75 68 63 59 55 52 49 47 45 44 44 43 41 38 37 36 35 35 35 35 35 36 36 37 37 37 37 36 36 36 35 34 33 32 31 31 30 30 29 27 25 23 21 20 20 21 23 27 30 34
94 96 95 86 74 63 59 65 78 90 97 99 99 98 99 102 103 100 101 102 97 85 73 65 60 55 52 50 49 49 49 48 47 47 48 48 49 48 45 42 40 39 38 37 36 36 37 38 38 38 38 38 37 36 36 35 35 34 32 31 30 29 27 26 26 25 24 22 21 19 18 19 21 23
73 79 84 82 76 68 62 64 75 86 89 89 91 94 96 96 96 94 90 86 79 67 58 55 55 54 54 54 52 51 50 50 49 49 48 48 49 49 48 47 45 45 44 42 40 39 39 39 37 36 35 34 34 33 32 32 31 30 29 28 27 26 26 25 25 24 24 23 22 21 20 19 19 19
62 65 70 73 74 77 79 77 74 72 72 76 81 83 83 81 79 75 71 66 62 58 57 58 60 60 60 58 56 53 51 49 47 46 45 45 45 46 46 46 45 45 45 44 43 41 39 37 35 33 31 30 29 28 27 26 25 24 24 24 23 22 21 21 21 20 20 20 20 19 18 18 18 18
74 67 66 64 63 68 75 76 72 68 68 73 74 73 71 69 67 66 64 63 62 63 64 65 66 66 64 61 58 55 52 49 46 44 43 43 44 44 44 44 43 43 42 41 38 35 33 31 29 28 26 24 23 22 21 21 21 20 20 19 19 19 18 17 17 17 16 16 16 16 16 15 15 15
85 79 74 67 62 61 64 67 68 69 71 72 72 71 70 69 71 73 73 72 72 74 75 75 73 70 66 62 58 55 53 51 48 45 44 43 42 41 40 40 40 38 35 32 30 28 27 26 24 22 21 19 18 18 18 18 18 18 18 18 18 18 17 16 15 15 15 15 15 15 15 14 13 13
89 86 81 74 70 69 69 70 70 70 72 73 75 76 76 77 80 83 84 84 86 88 87 84 80 76 72 68 63 59 57 55 51 47 45 43 42 41 40 39 36 31 27 26 26 25 24 22 20 19 18 17 17 17 17 17 18 18 18 18 18 17 16 15 14 14 14 14 14 14 14 14 13 12
93 90 85 80 77 74 74 74 74 75 78 79 80 78 77 80 85 90 92 93 94 94 92 88 85 82 78 73 68 63 59 53 48 43 41 40 40 40 38 34 29 27 26 25 23 22 20 19 18 18 17 18 18 18 17 17 17 17 17 16 15 15 14 14 13 13 13 13 13 13 13 13 13 13
99 96 90 81 75 74 75 75 76 79 81 79 77 76 78 85 91 95 97 97 96 94 91 88 85 82 76 70 63 58 52 45 40 36 35 36 36 34 30 28 26 26 26 24 21 20 19 19 18 18 19 18 18 17 17 17 16 16 17 16 15 14 13 13 14 13 12 12 12 12 12 12 12 12
104 102 97 91 87 86 83 80 79 78 75 75 78 84 89 93 95 96 96 95 94 93 90 86 81 74 67 61 53 46 40 36 33 32 32 32 30 27 26 26 26 24 23 21 20 20 19 19 19 19 19 18 17 17 17 18 18 17 17 17 16 15 14 14 15 15 14 13 12 12 11 11 11 11
101 102 102 102 101 99 94 88 82 76 74 79 87 95 98 97 95 94 91 89 87 86 81 74 66 58 52 46 40 35 32 30 30 31 30 28 26 25 26 25 23 22 21 21 20 20 20 20 20 20 19 18 17 17 17 19 19 18 17 17 16 16 16 15 15 16 15 14 13 12 12 11 11 11
102 102 103 105 105 99 90 82 76 75 81 89 95 99 100 97 93 89 84 80 76 71 63 55 48 43 39 35 32 30 29 29 30 29 26 25 25 25 24 23 21 21 21 21 21 21 21 21 20 20 19 19 18 17 17 17 18 18 17 15 14 15 15 14 14 15 15 14 13 13 12 12 12 12
99 100 102 103 97 85 73 68 70 78 87 93 97 98 94 87 81 78 75 70 64 56 49 43 39 35 32 30 29 28 28 28 28 26 24 24 25 23 22 21 21 21 22 22 22 22 21 20 20 20 20 19 18 17 15 14 15 15 15 14 14 14 14 13 12 13 13 14 14 13 13 13 12 13
92 96 97 92 80 69 64 66 73 81 86 88 91 90 83 74 70 69 66 61 55 48 42 37 34 31 30 29 28 28 28 28 27 24 24 24 23 21 21 22 22 23 23 23 23 22 21 21 21 20 20 18 17 15 14 13 13 13 13 13 13 12 12 11 11 11 12 12 12 12 12 12 12 13
75 79 79 72 65 61 63 65 69 72 74 76 78 76 70 66 64 62 58 53 48 42 37 34 31 30 29 28 28 28 28 27 25 23 24 24 23 22 23 23 24 24 24 23 23 23 23 22 21 19 18 16 14 13 12 11 11 11 11 11 11 11 11 10 10 10 10 10 10 11 11 11 11 11
57 58 57 55 53 53 54 55 57 57 58 60 62 62 61 60 58 55 51 46 41 36 33 32 31 30 29 28 28 28 28 26 25 24 25 24 24 23 24 25 25 24 24 25 25 25 24 22 19 16 15 13 13 12 12 11 11 10 10 10 10 9 9 9 8 8 8 8 8 8 9 9 9 9
44 44 43 43 44 46 47 47 47 47 48 52 55 56 56 55 52 48 43 39 35 34 33 31 30 29 29 28 28 29 29 27 26 26 26 25 25 26 25 25 25 25 26 27 27 26 23 19 16 15 14 14 14 13 12 12 11 11 11 11 10 9 8 8 8 8 8 8 8 8 8 8 8 8
33 34 36 38 40 42 42 41 42 45 48 50 50 49 48 46 43 40 37 35 34 33 32 31 30 29 29 30 30 31 30 28 28 28 27 27 27 27 26 25 26 27 29 29 27 25 21 17 16 15 16 18 18 18 18 17 16 16 16 15 14 13 12 12 11 10 10 10 10 10 10 10 10 10
24 26 29 32 33 33 35 38 42 44 44 42 41 42 41 40 38 36 35 34 33 32 31 30 30 31 31 33 33 33 31 30 29 29 29 29 29 28 27 28 29 30 30 28 26 23 20 18 18 19 22 25 27 26 25 24 23 22 22 21 20 19 17 16 15 14 13 13 13 13 13 12 12 12
20 23 25 26 27 31 37 41 41 38 37 38 39 39 38 37 36 35 35 34 33 32 31 32 33 34 35 35 34 33 32 31 31 31 31 30 29 29 30 31 31 31 30 28 26 25 24 23 23 25 29 32 33 32 31 30 29 29 28 26 24 22 20 20 18 16 16 15 14 14 14 14 14 14
20 23 26 29 33 38 41 39 37 36 38 40 40 38 37 36 36 35 35 35 33 32 33 35 35 36 36 36 35 34 33 32 32 33 32 31 31 32 33 33 32 31 30 29 30 31 31 31 32 34 36 38 39 39 39 37 35 33 31 30 28 25 23 23 22 20 19 18 16 16 16 16 15 15
Wind_Speed
41 41 41 41 40 40 41 41 42 42 42 42 42 43 43 43 44 45 45 44 42 41 40 39 39 39 39 38 38 38 39 39 39 42 45 49 50 48 45 43 44 47 49 50 51 50 49 48 48 47 46 45 45 47 50 52 52 52 52 52 51 50 48 48 47 48 48 48 49 49 49 51 53 53
43 43 42 42 42 42 43 44 44 44 43 43 43 44 44 45 45 46 46 46 45 44 43 43 42 42 42 41 41 41 41 40 40 40 41 44 47 49 48 46 45 46 49 50 51 51 51 50 49 48 48 47 46 47 49 52 55 56 55 54 53 52 51 51 51 52 51 49 49 50 51 52 53 54
44 44 44 43 43 44 44 44 44 44 44 43 43 44 44 45 46 47 48 49 49 48 47 46 45 45 44 44 44 44 43 43 42 42 42 42 43 46 49 49 47 47 48 50 52 53 53 52 51 50 49 48 48 48 48 50 53 57 58 58 57 56 55 54 54 54 55 53 50 50 51 52 54 56
45 44 44 44 44 43 42 42 42 42 43 43 44 45 46 47 47 48 49 50 50 50 50 49 48 48 47 47 47 47 46 46 45 44 43 43 43 44 46 48 49 49 49 50 51 53 53 54 53 51 50 50 50 50 50 50 51 54 57 60 60 60 59 58 57 56 57 57 55 53 52 54 55 57
45 44 44 43 42 41 39 38 39 41 43 45 46 47 47 46 46 46 47 48 49 51 52 52 51 50 50 49 49 49 49 49 48 47 46 45 44 44 45 46 48 50 51 51 52 52 53 54 55 54 53 52 51 51 51 52 52 53 55 57 60 61 61 61 60 60 60 61 60 59 57 56 56 57
44 44 43 42 41 38 36 36 38 40 43 45 46 46 46 45 45 45 46 47 48 50 52 52 52 52 51 51 51 51 51 51 51 50 49 48 47 46 46 46 47 48 50 52 53 54 54 54 55 56 56 55 54 53 53 53 54 55 56 56 58 60 61 62 62 62 62 63 64 64 63 62 60 58
44 44 44 43 42 40 39 38 39 40 42 44 45 45 44 44 45 46 47 47 48 49 51 52 52 51 51 50 51 51 51 51 51 51 51 50 50 49 48 48 48 48 48 50 52 54 56 56 56 57 57 57 57 56 56 55 55 56 57 58 58 59 61 63 63 63 63 64 66 67 67 67 66 64
45 45 46 46 46 45 45 45 45 44 43 43 43 43 43 43 44 44 45 46 46 47 47 48 49 49 49 48 49 51 51 50 50 51 52 52 52 52 52 51 51 50 50 50 51 52 54 57 58 59 59 59 59 59 59 59 58 58 58 59 59 59 60 62 64 65 64 64 66 68 69 69 69 70
49 50 50 51 50 50 49 49 49 49 49 47 46 45 45 44 44 44 44 44 43 43 43 44 46 47 47 47 48 50 50 50 50 51 52 53 54 54 54 53 54 54 53 52 52 52 53 55 57 59 60 61 61 62 62 62 61 61 60 60 60 60 60 61 63 65 65 65 65 68 70 71 71 71
55 56 56 55 54 53 52 51 51 52 52 50 49 49 48 48 46 45 45 44 43 42 42 42 42 43 44 45 46 48 49 49 49 49 50 52 54 55 55 55 55 56 56 56 55 55 55 55 56 57 59 61 62 63 64 64 64 64 64 63 63 63 62 62 63 65 66 66 66 66 69 72 74 73
59 60 60 58 56 55 54 53 52 52 52 50 50 50 49 49 48 47 46 45 44 43 42 41 40 41 43 44 45 48 49 49 49 49 49 50 51 53 55 56 56 56 58 58 58 58 58 58 57 57 58 59 61 63 64 65 67 67 66 66 67 66 66 65 65 66 67 68 69 68 68 69 72 75
60 60 60 59 58 56 54 52 50 50 50 49 47 47 48 48 48 47 47 46 45 44 43 41 40 40 42 43 45 47 49 49 50 50 50 50 51 52 54 56 57 57 59 60 60 60 61 61 61 60 59 60 61 63 64 66 68 69 68 69 69 69 69 69 69 69 69 70 71 72 72 71 71 73
59 59 59 58 57 55 54 53 52 50 48 47 46 46 48 48 48 48 47 47 47 46 45 44 42 41 42 42 43 46 47 49 50 50 51 52 53 53 54 56 57 57 58 61 63 62 62 62 63 64 63 62 63 64 64 65 68 70 70 71 72 72 72 73 73 73 73 73 73 74 75 76 76 75
60 60 58 57 56 54 53 53 51 49 48 48 47 47 48 48 48 48 49 49 49 48 47 46 45 44 44 44 44 45 47 48 50 50 51 52 52 53 54 56 57 58 58 60 63 65 64 64 64 66 67 66 66 67 66 66 68 69 71 72 73 74 75 75 76 76 76 77 77 76 77 78 79 80
61 59 58 57 56 54 52 51 51 51 51 51 50 48 47 48 48 48 49 49 49 50 49 48 48 46 46 47 47 47 49 49 50 51 52 52 52 52 53 54 56 58 58 58 61 64 67 67 66 68 69 69 70 70 70 70 70 70 71 72 73 75 76 77 78 79 80 80 80 80 80 80 80 81
60 59 58 58 57 56 56 56 56 55 53 52 51 50 49 49 49 49 50 50 49 50 51 50 50 49 49 50 49 50 52 52 51 53 54 54 54 54 54 55 57 58 59 59 59 62 66 68 68 69 71 72 72 73 74 74 74 74 73 73 74 75 77 78 79 80 82 83 84 84 84 84 84 84
59 58 59 59 59 59 60 60 59 57 55 53 52 52 51 51 51 51 51 51 50 50 50 51 51 51 52 52 51 51 54 54 54 55 56 57 58 58 58 59 60 61 61 60 61 62 66 68 68 69 71 73 74 75 76 77 78 78 78 78 78 78 78 79 80 81 83 84 85 87 88 88 88 88
57 57 58 60 60 61 62 62 61 60 58 56 54 54 54 53 53 53 52 51 49 48 47 48 48 50 51 52 51 52 54 55 56 58 59 60 61 61 61 62 63 64 64 63 62 63 67 70 69 69 70 71 73 75 77 79 80 81 82 82 82 82 82 82 82 83 84 85 86 88 89 90 91 92
59 58 59 60 61 63 64 65 64 62 61 60 58 57 57 57 57 56 56 54 53 52 50 49 48 49 50 50 50 51 52 53 55 56 58 61 63 63 63 64 64 65 66 66 64 63 66 70 71 71 71 71 72 74 76 78 80 82 84 85 86 86 86 86 86 86 86 87 87 88 90 91 92 93
64 63 63 63 63 64 66 67 68 66 64 63 61 60 60 60 59 59 59 58 58 58 58 58 57 56 56 55 53 52 52 52 53 54 56 59 62 63 63 64 65 66 67 68 66 64 66 70 72 72 72 73 74 76 77 78 79 81 84 87 88 89 90 90 90 90 90 91 91 91 91 92 92 93
67 67 67 67 67 67 68 69 70 70 68 66 65 64 64 63 63 63 62 62 62 62 63 64 64 64 63 62 60 58 57 56 55 55 56 58 60 61 62 63 65 66 67 68 67 65 66 69 70 71 72 74 76 77 79 79 80 81 83 86 88 90 92 93 93 94 94 95 95 95 95 95 94 94
70 70 70 71 71 72 72 72 71 70 69 69 68 68 67 66 66 66 66 65 65 66 66 66 67 66 66 64 63 61 59 57 56 55 56 57 58 59 60 61 62 64 67 68 67 66 67 68 68 69 71 73 75 77 78 80 81 82 84 86 88 90 93 94 95 96 98 99 100 99 99 99 98 97
73 74 75 76 76 76 76 74 72 70 68 67 68 69 69 69 68 68 68 67 66 67 67 66 66 65 64 63 61 60 59 58 57 56 56 57 57 57 58 59 60 62 64 66 65 65 66 67 68 69 69 71 74 76 79 81 82 84 85 87 89 91 93 94 95 97 99 101 103 103 103 102 101 100
75 76 78 80 80 79 76 74 72 70 68 68 69 71 71 70 70 70 70 69 68 67 66 66 65 64 63 61 60 60 59 60 59 59 59 59 58 57 58 59 60 60 62 64 64 64 65 66 67 70 71 71 73 76 79 82 84 86 87 88 90 92 94 95 95 97 99 101 103 104 104 104 104 104
78 79 81 84 84 81 75 70 68 67 68 70 71 72 72 71 71 70 70 70 69 68 67 66 65 64 63 62 62 61 61 61 61 61 62 61 61 60 60 60 61 61 63 64 65 65 66 67 68 70 72 73 74 76 79 82 85 87 88 89 91 93 94 95 96 97 98 99 100 101 101 102 104 105
76 79 81 82 82 78 71 66 65 66 68 70 71 71 71 70 70 70 69 69 69 68 67 66 66 65 65 64 64 64 63 63 63 63 64 64 64 64 64 63 63 64 65 66 66 66 66 67 69 70 72 73 75 76 78 81 84 87 89 90 91 92 94 94 95 96 98 98 99 98 97 97 98 100
72 74 76 77 77 75 70 65 63 65 67 68 67 68 68 68 69 69 69 69 69 69 68 68 68 68 68 68 68 67 67 66 66 66 65 65 65 65 66 65 65 66 66 67 67 67 67 67 68 70 70 72 73 75 77 80 82 85 87 88 89 90 91 92 93 94 95 96 97 97 95 93 93 94
71 71 72 72 72 71 70 68 66 65 65 65 66 67 67 67 68 69 70 70 71 70 70 70 71 72 72 72 71 71 70 69 68 67 66 66 66 66 66 66 66 66 66 67 67 67 67 67 67 68 70 71 73 74 76 78 80 82 83 84 85 86 87 88 88 89 89 90 91 91 91 90 89 90
75 73 72 71 70 68 69 69 69 67 66 66 67 68 68 68 69 71 72 73 73 73 73 74 74 75 75 75 74 74 73 72 71 69 67 67 67 67 66 66 66 66 66 66 65 65 65 65 66 68 69 70 71 72 72 72 74 76 76 76 77 79 80 80 80 80 80 80 81 83 84 84 84 84
78 76 75 75 73 70 70 70 70 69 69 69 70 70 70 71 72 73 75 76 76 77 77 78 78 78 78 78 77 76 76 75 73 71 69 69 68 68 67 67 68 67 65 63 62 62 63 64 66 67 67 67 66 66 65 65 66 67 68 68 69 70 72 72 72 71 71 72 73 75 77 78 78 78
80 79 79 78 76 74 73 73 73 72 72 72 72 73 73 73 74 75 77 78 78 80 81 81 81 81 81 81 80 79 78 77 75 73 72 71 71 72 72 71 70 67 63 61 61 61 62 63 63 62 61 61 60 59 58 58 58 59 61 62 62 64 66 66 66 65 65 65 67 68 70 71 72 73
83 83 83 82 80 78 77 77 76 75 75 75 75 75 75 75 76 77 79 79 80 81 82 83 83 83 83 83 82 81 80 79 77 75 73 73 74 74 74 71 68 65 63 62 61 60 59 58 58 56 55 54 54 54 53 53 54 55 56 57 58 59 60 60 60 60 59 59 60 62 63 65 66 67
86 87 87 86 83 82 81 80 79 78 78 78 77 77 76 77 77 79 80 81 82 82 83 83 84 84 83 83 82 81 80 78 76 74 73 74 74 72 70 67 65 63 62 60 58 56 55 54 53 52 51 51 51 50 49 50 50 50 51 53 54 55 54 53 53 54 54 54 55 56 57 58 59 60
88 89 89 88 86 85 84 83 82 80 79 78 77 77 78 78 78 79 80 81 81 82 83 83 83 83 83 82 82 80 79 76 75 73 73 72 70 67 65 63 61 59 57 55 53 52 51 50 49 48 48 48 48 46 45 46 47 47 47 49 50 50 50 48 47 48 49 50 50 51 52 53 53 54
89 89 90 89 89 89 88 87 85 82 79 77 77 78 79 79 79 79 80 80 80 81 82 82 82 82 82 81 80 78 76 74 73 72 70 68 64 62 60 58 56 54 52 51 49 48 47 46 46 46 46 45 44 43 41 41 43 45 46 47 46 46 46 45 44 44 45 46 46 46 47 47 47 48
90 90 90 90 91 92 90 88 85 82 79 79 79 80 80 79 79 80 80 80 81 81 81 81 81 80 79 78 76 74 71 70 68 67 64 61 58 56 54 52 50 49 47 46 46 45 44 44 43 43 43 42 42 41 39 38 39 42 44 45 44 43 43 43 41 40 41 43 43 42 42 42 43 43
91 90 91 92 93 93 90 86 83 81 80 80 80 81 80 79 79 80 81 81 81 81 81 80 78 77 75 73 71 68 65 63 62 60 57 54 51 50 49 47 46 45 44 44 43 43 42 41 40 40 40 39 39 39 38 36 36 37 40 42 41 41 41 40 38 37 38 39 39 39 39 39 39 39
91 91 92 93 93 91 88 85 83 82 81 81 81 82 81 80 80 81 82 81 81 80 79 77 75 73 70 68 65 61 58 57 56 53 50 47 47 46 45 43 43 42 42 41 41 40 39 38 37 37 37 37 37 36 36 35 34 34 36 38 38 39 39 38 36 35 35 35 36 36 37 36 36 36
92 92 93 93 92 90 88 86 84 83 82 81 82 82 82 81 81 81 80 80 79 77 75 72 70 67 64 61 57 54 52 51 50 47 44 44 44 43 42 41 40 40 39 39 38 37 36 36 36 35 35 35 34 34 34 34 33 32 33 34 35 35 35 35 33 32 32 32 32 32 33 34 34 34
92 92 92 91 90 89 87 86 84 83 81 81 81 81 81 81 80 79 78 77 75 72 69 67 64 60 57 54 51 48 47 47 46 43 42 42 41 40 39 39 38 38 37 36 35 35 35 35 35 34 33 32 31 31 31 31 30 30 30 30 31 31 31 30 30 29 29 29 28 29 29 31 31 32
92 91 90 88 87 86 86 85 83 81 80 79 79 79 78 78 77 75 73 71 69 65 63 60 57 53 51 48 46 45 45 45 43 41 40 40 39 38 38 36 36 35 34 34 34 34 34 33 33 31 30 30 30 29 29 29 28 28 27 27 28 28 27 27 26 26 26 26 26 26 26 27 28 28
88 86 84 84 83 83 82 81 79 78 77 76 76 74 73 72 70 68 66 64 61 59 56 53 51 48 46 44 43 43 43 42 40 39 39 38 37 36 35 34 33 33 32 33 33 32 32 31 30 29 28 28 28 28 28 27 26 26 25 25 25 25 24 24 24 24 23 23 24 24 24 24 24 24
77 76 76 77 77 75 74 73 72 72 71 69 68 66 65 63 62 60 59 57 55 53 51 48 46 44 43 42 42 41 41 40 38 37 37 36 35 34 33 32 32 31 31 31 31 31 30 29 28 27 27 27 27 26 25 25 24 24 24 24 24 23 23 23 22 22 21 21 21 22 22 22 22 22
65 64 65 66 65 63 63 64 65 64 62 60 59 59 58 56 56 55 53 52 51 49 46 45 43 42 41 40 40 39 38 38 36 35 35 34 33 32 31 31 30 30 30 30 29 29 28 27 27 26 25 25 25 25 24 23 22 22 22 22 22 22 21 20 20 20 19 19 19 20 20 20 20 20
57 56 57 57 56 56 58 59 58 56 55 55 55 55 54 52 52 51 49 48 47 45 43 42 41 39 39 39 38 37 36 35 34 34 33 32 32 31 30 29 29 29 29 28 27 27 27 27 26 25 24 23 23 23 22 20 20 20 20 20 20 19 18 18 18 17 17 18 18 18 18 18 18 19
Wind_Direction
283 283 282 281 279 277 276 277 276 273 271 270 270 270 268 267 265 265 267 269 270 270 268 266 263 261 259 257 257 259 260 262 260 257 254 251 250 250 251 250 247 245 244 244 244 244 243 240 238 239 241 243 245 242 238 237 238 239 239 238 238 240 241 240 239 238 240 244 247 249 251 250 249 247
283 282 282 281 280 279 278 278 277 274 271 270 269 270 269 268 267 266 267 268 269 269 268 266 264 262 261 259 257 256 257 259 261 261 258 254 250 249 249 249 247 245 244 244 244 244 243 241 239 239 239 240 242 244 242 239 238 239 240 240 239 238 239 239 237 236 238 241 242 243 245 250 252 251
282 281 281 280 280 280 279 279 278 276 274 272 271 270 270 269 268 267 267 267 268 268 267 265 264 263 263 262 260 257 255 255 256 258 259 258 254 250 249 249 248 246 245 244 244 243 243 242 241 240 240 239 240 241 243 242 240 239 240 241 241 239 239 239 238 236 237 240 242 241 240 243 249 254
280 279 279 280 279 279 279 278 277 276 275 273 272 271 270 269 269 269 269 267 266 265 264 264 264 263 263 263 261 259 256 254 254 254 256 257 257 255 252 250 249 248 246 245 244 244 243 242 241 242 241 241 240 240 241 243 243 242 241 241 242 242 242 241 240 238 237 239 240 241 240 239 242 248
280 278 279 279 278 278 277 274 273 272 272 272 271 272 271 270 269 269 267 266 265 263 263 263 263 263 263 263 262 260 257 255 253 253 253 254 256 256 255 253 251 249 247 246 246 245 244 243 242 242 242 242 240 240 240 241 242 243 243 243 242 243 243 243 242 240 238 238 239 240 241 241 241 243
279 278 279 280 281 280 277 273 272 271 271 271 271 271 270 269 268 267 267 266 265 264 263 263 263 263 263 263 262 260 258 255 253 252 253 253 254 255 256 256 255 253 251 249 248 247 245 244 244 243 243 243 241 240 240 241 242 243 244 244 244 243 243 243 243 242 240 239 239 240 241 241 242 242
282 282 284 287 289 288 284 280 278 275 272 270 269 268 267 267 267 267 267 266 266 265 265 264 264 264 264 263 261 259 257 255 253 252 252 253 254 254 255 256 256 255 254 252 251 249 247 246 246 245 244 244 243 241 241 241 241 242 243 244 245 245 244 243 243 243 242 241 240 240 240 241 241 241
284 284 286 289 291 291 288 286 285 283 280 276 274 272 270 269 269 270 270 269 268 266 266 265 264 263 262 261 260 258 256 255 253 252 252 252 253 253 253 254 255 255 254 254 253 251 250 249 248 247 246 245 245 244 242 242 241 242 242 243 244 245 245 244 243 243 243 243 242 241 240 241 241 241
282 282 284 287 289 289 287 286 285 284 283 282 281 280 279 278 277 276 275 274 271 269 268 267 264 262 261 260 259 258 257 255 254 253 251 251 251 252 252 252 253 254 254 253 253 252 252 251 250 249 248 247 246 245 245 244 243 242 242 242 243 244 245 245 244 243 243 243 243 242 241 241 241 241
278 279 281 283 285 285 284 283 282 281 281 281 282 282 282 281 281 280 278 277 274 272 272 270 265 262 261 261 261 260 258 256 255 254 253 252 251 252 252 252 252 253 253 253 253 253 252 252 251 250 249 249 248 247 246 246 245 244 243 243 243 243 244 244 245 245 245 244 244 243 242 242 241 242
276 277 278 280 282 283 282 281 280 280 279 279 280 280 280 280 280 280 279 277 276 274 273 270 267 264 262 261 261 260 259 257 255 254 253 253 252 253 253 252 252 252 253 252 252 253 253 253 252 252 251 250 249 248 247 247 247 246 245 245 244 243 244 244 244 245 245 246 246 245 245 243 242 242
275 275 276 278 279 279 279 279 279 280 280 279 279 279 279 279 279 279 278 277 276 275 272 269 268 267 266 264 262 261 260 258 257 256 255 254 254 254 254 254 253 253 254 253 252 252 253 253 253 252 252 252 251 249 247 248 248 247 246 246 246 245 245 244 244 244 244 245 245 246 246 245 244 243
274 275 276 276 276 276 277 278 279 280 280 279 279 278 278 278 278 277 276 276 275 274 272 269 267 268 268 267 265 264 263 261 259 258 257 257 257 256 255 255 254 253 255 256 254 252 252 253 253 253 252 252 252 252 250 249 249 248 247 247 247 247 246 245 245 244 244 244 244 244 245 246 246 245
274 275 276 276 277 278 278 278 279 279 279 279 278 276 276 275 275 276 276 276 276 274 272 270 268 267 267 266 265 265 265 264 263 260 258 258 258 258 257 257 256 254 254 257 257 255 253 252 253 254 253 252 252 253 252 251 250 250 249 248 248 248 247 247 246 246 245 245 244 244 244 244 245 245
276 277 277 276 277 278 277 276 277 278 278 278 277 275 273 272 272 272 273 274 275 274 273 272 270 269 268 267 265 265 264 263 263 262 260 257 256 255 256 257 257 256 254 256 258 258 256 253 253 254 254 254 253 253 253 252 251 251 251 250 249 249 248 248 248 247 247 246 245 245 245 244 244 244
278 278 277 277 277 277 276 276 277 278 277 277 276 276 275 273 272 270 270 270 272 273 273 272 271 270 269 268 267 267 266 265 264 263 262 260 257 255 255 256 258 257 256 255 257 258 258 256 254 254 255 255 254 255 254 254 253 252 252 251 251 250 250 249 248 248 248 247 247 246 245 245 245 244
278 277 277 278 278 278 278 279 280 280 280 279 279 278 277 276 275 274 272 270 269 268 269 270 270 270 269 269 268 268 268 267 266 265 264 263 261 260 259 259 259 259 258 256 256 257 258 258 256 255 256 255 255 255 255 255 255 254 253 252 252 251 251 251 250 249 248 248 248 247 247 246 245 245
275 275 276 277 277 277 278 279 280 282 283 283 283 282 282 281 281 281 281 280 278 273 268 267 268 268 269 269 268 268 269 269 268 267 267 266 264 263 262 261 261 261 261 260 258 257 258 258 257 255 256 256 256 256 255 255 255 255 255 254 253 252 252 252 252 251 250 249 248 248 248 247 247 246
270 270 270 272 273 275 276 278 281 283 284 285 286 286 286 286 286 287 288 288 287 285 281 278 275 273 272 272 270 269 268 268 268 268 268 267 266 265 264 264 263 263 263 262 261 259 259 260 259 257 257 257 257 257 256 256 256 256 256 255 254 253 253 252 252 252 252 251 250 250 249 248 248 248
270 269 268 267 268 270 273 277 280 283 284 285 285 285 284 284 285 286 286 287 287 287 287 287 286 284 283 282 280 278 275 273 272 271 270 268 267 265 265 265 265 265 265 264 263 262 261 262 262 261 260 259 258 258 258 257 256 256 256 256 255 254 253 253 253 253 253 253 252 251 251 249 249 248
268 268 267 266 265 267 270 273 277 280 283 283 283 283 283 284 284 284 285 285 285 285 285 285 285 285 286 286 286 285 283 281 278 276 274 271 268 267 266 266 266 267 268 268 267 265 263 262 262 262 261 261 260 260 260 259 258 258 257 257 256 256 255 254 253 253 253 253 253 253 252 251 250 249
265 265 265 264 265 266 268 271 274 277 279 280 281 282 282 282 283 282 282 283 282 282 282 282 283 283 284 284 284 284 284 282 280 278 276 274 271 269 268 267 267 268 268 269 269 268 266 265 263 262 261 261 261 261 260 261 260 259 258 258 257 257 256 255 254 254 253 253 253 253 253 253 252 251
263 264 264 264 265 267 269 272 275 276 277 278 279 280 281 281 282 282 283 283 282 282 282 282 282 282 283 283 283 283 283 283 282 280 279 277 275 273 271 270 269 268 268 268 267 267 267 266 266 265 263 262 262 261 260 260 259 259 258 258 258 258 257 256 255 255 254 254 254 253 253 254 254 253
262 264 265 266 267 269 271 273 275 275 276 277 278 279 280 281 282 282 283 283 283 283 283 283 283 283 283 283 283 283 283 283 282 282 280 279 277 275 274 273 271 270 270 269 268 267 267 267 266 266 264 263 262 262 261 260 259 258 258 257 257 258 258 258 257 256 256 255 255 254 254 254 255 255
261 263 265 268 270 273 274 276 277 277 276 276 277 278 279 280 281 281 282 282 283 283 283 283 283 284 284 284 283 283 282 282 282 283 283 282 281 279 277 276 274 273 272 270 269 268 268 267 267 266 265 264 262 261 261 261 260 260 259 258 257 257 258 258 259 259 258 258 258 257 256 256 255 255
263 264 265 268 272 276 279 279 278 277 275 275 275 277 278 279 279 280 280 280 281 282 283 283 284 284 284 284 283 283 284 284 284 284 284 284 284 283 282 280 279 277 276 274 273 271 270 269 268 267 266 265 264 263 262 261 261 261 261 260 260 260 260 260 261 261 261 261 261 261 260 258 257 256
267 267 268 270 273 278 280 280 278 276 275 275 276 277 277 278 278 279 280 280 280 281 282 284 284 285 285 285 285 286 286 286 286 286 285 284 283 283 282 282 281 280 279 278 277 276 274 272 271 269 268 266 265 264 263 263 262 262 263 263 263 263 263 263 263 262 262 262 263 263 263 261 260 258
271 270 270 271 273 276 278 278 278 277 276 277 277 278 278 278 279 279 279 280 281 282 283 284 285 285 286 286 287 288 288 288 287 286 285 285 284 283 283 283 283 282 282 281 280 279 277 275 274 272 270 268 267 266 265 265 265 265 266 266 266 265 265 264 264 263 263 263 263 263 263 262 261 259
273 273 273 273 274 274 275 275 276 277 277 277 278 278 278 279 279 280 280 281 283 284 285 285 286 286 287 287 288 289 289 289 288 287 287 286 286 286 286 286 285 285 284 283 282 280 279 277 275 273 271 269 269 268 268 268 269 268 268 268 267 266 266 265 264 264 264 263 263 263 262 262 261 259
273 274 274 274 275 274 274 275 275 276 276 277 277 278 278 279 279 280 282 283 284 285 286 286 287 287 288 289 289 289 290 290 289 289 289 289 289 289 289 289 288 287 286 285 283 282 280 278 276 274 273 273 272 272 271 270 270 269 269 268 267 267 266 266 265 265 264 263 263 262 262 262 262 260
272 272 273 273 274 274 274 274 274 275 275 276 276 277 278 279 280 281 282 284 285 285 286 287 287 288 289 289 290 290 290 290 290 291 291 291 292 292 292 291 290 288 287 286 285 283 281 279 278 277 277 277 276 274 273 272 271 270 269 268 268 268 267 267 267 266 265 264 263 263 262 262 262 262
270 270 271 271 271 272 272 273 273 274 275 275 276 277 278 279 280 281 282 283 284 284 285 286 287 287 288 288 289 289 290 290 290 291 291 292 292 292 291 290 289 289 288 287 285 283 282 281 280 280 279 279 278 277 275 274 272 271 271 270 269 268 267 268 269 268 267 266 265 264 263 263 262 261
269 269 270 270 271 272 272 272 273 273 274 275 276 277 279 279 280 281 282 282 283 284 285 285 286 286 287 288 288 288 289 289 290 291 292 292 291 290 289 289 289 288 287 286 285 284 283 283 283 282 281 280 279 278 277 276 274 272 272 271 270 269 269 269 270 269 269 267 266 265 265 264 263 262
268 269 271 272 273 273 273 274 274 274 274 276 278 279 279 280 280 280 281 282 283 284 284 285 285 286 286 287 287 288 289 290 291 292 292 291 289 288 288 288 288 287 286 286 285 285 285 285 284 283 282 281 280 278 278 277 276 274 273 272 272 272 272 271 271 270 270 269 268 267 266 265 265 264
267 269 270 272 273 274 274 274 275 276 277 279 279 280 280 280 281 281 282 282 283 283 284 284 285 285 286 286 287 288 290 291 292 291 290 288 288 288 288 287 286 286 286 286 286 286 286 286 285 285 283 282 280 278 277 276 277 276 275 274 273 274 274 273 272 271 271 270 269 268 268 267 266 265
266 267 269 270 271 272 272 273 275 277 278 279 279 279 280 281 282 282 283 283 284 284 284 284 284 285 286 287 288 290 291 292 291 289 287 287 288 287 286 285 285 286 287 286 286 286 287 287 286 285 284 282 281 280 278 276 277 277 277 276 276 275 275 274 273 272 272 272 271 270 269 268 267 266
265 266 267 268 268 270 271 273 275 277 278 278 279 279 280 281 282 282 283 284 284 284 284 285 285 286 288 289 290 291 291 291 288 286 286 287 287 286 285 286 287 287 287 288 288 287 287 287 286 285 285 284 284 284 282 279 278 278 278 278 278 277 277 276 275 274 273 272 272 272 271 269 268 266
263 264 265 266 268 270 272 274 275 276 277 278 278 279 280 281 281 282 283 283 284 284 284 285 287 288 289 290 290 291 290 287 285 285 287 287 286 286 287 287 288 288 288 288 288 288 288 288 287 286 287 287 287 286 285 283 280 278 278 278 278 278 278 278 278 277 275 273 272 272 271 270 269 267
262 263 264 266 268 270 272 273 274 275 276 277 277 278 279 280 281 281 282 283 283 283 285 286 287 288 289 289 289 288 287 285 285 286 288 287 286 287 288 288 288 289 289 289 289 290 289 289 289 289 290 290 289 288 286 285 283 281 279 279 278 278 279 280 280 279 277 275 273 272 271 270 269 268
261 262 263 265 267 269 271 272 273 274 274 275 276 277 278 279 279 280 281 281 282 283 284 285 286 287 287 287 287 286 286 285 287 288 288 287 286 287 287 288 289 289 289 290 291 291 291 291 291 292 292 291 290 289 287 286 286 284 283 281 281 280 281 281 280 279 278 276 274 272 270 269 268 268
260 261 263 265 266 268 269 270 272 273 274 275 275 276 276 277 278 278 279 280 281 282 283 283 284 285 285 285 286 286 286 286 287 287 287 286 286 287 287 288 289 289 290 291 292 292 292 292 293 294 294 294 293 291 289 289 288 287 286 284 284 283 283 282 280 279 279 278 276 274 271 269 268 268
260 261 263 265 266 267 268 270 271 273 273 273 273 274 274 274 275 276 276 278 279 279 280 281 283 284 284 285 286 285 285 286 286 285 285 285 286 287 288 289 289 290 291 292 292 292 293 293 295 296 296 296 294 293 293 292 291 290 289 287 287 286 284 283 281 280 279 278 277 276 274 272 270 269
261 262 263 264 265 266 268 270 270 270 270 270 270 271 271 271 272 273 274 275 276 278 279 281 282 283 284 284 284 283 284 284 284 283 284 284 285 286 288 289 290 290 291 291 292 292 293 294 296 296 296 296 295 294 294 293 292 290 289 288 287 286 285 283 283 282 281 280 278 277 276 275 273 272
261 262 263 264 265 266 267 266 266 266 266 267 268 268 268 269 270 271 273 274 275 277 279 280 281 282 282 282 281 282 281 281 281 282 282 283 285 286 287 288 289 290 291 291 292 293 294 295 295 295 295 294 293 292 292 290 288 287 285 285 284 283 283 284 284 284 284 282 281 280 279 278 277 275
261 262 263 264 265 264 263 262 263 264 265 265 266 266 267 268 269 270 272 273 274 276 278 279 279 280 280 279 279 279 279 279 280 280 281 283 284 285 287 288 289 289 290 290 291 292 292 293 294 294 294 292 291 290 289 288 286 285 284 283 282 282 282 284 285 286 286 286 286 285 285 283 281 278